KT2UU-13 Weather Reports


time (UTC)temp
F
wind
direction
speed
knots
gust
knots
rain 1hr
in
rain 24hr
in
rain mn
in
humidity
%
barometer
mb
20260903130852 80 215 0.0 0.0 0.00 0.00 0.00 87 1019.6
20260903130347 80 215 0.0 0.9 0.00 0.00 0.00 87 1019.5
20260903125846 82 215 0.0 1.7 0.00 0.00 0.00 85 1019.7
20260903125341 82 216 0.0 0.0 0.00 0.00 0.00 85 1019.7
20260903124840 82 215 0.0 0.0 0.00 0.00 0.00 85 1019.8
20260903124336 81 213 0.0 0.0 0.00 0.00 0.00 86 1019.6
20260903123835 80 215 0.0 0.0 0.00 0.00 0.00 89 1019.7
20260903123329 80 216 0.0 0.0 0.00 0.00 0.00 89 1019.7
20260903122828 78 215 0.0 0.0 0.00 0.00 0.00 92 1019.8
20260903122323 76 207 0.0 0.0 0.00 0.00 0.00 97 1019.8
20260903121822 75 207 0.0 0.0 0.00 0.00 0.00 98 1019.6
20260903121317 75 207 0.0 0.0 0.00 0.00 0.00 99 1019.8
20260903120813 74 207 0.0 0.0 0.00 0.00 0.00 99 1019.7
20260903120306 74 207 0.0 0.0 0.00 0.00 0.00 99 1019.7
20260903115804 74 216 0.0 0.0 0.00 0.00 0.00 99 1019.6
20260903115300 73 216 0.0 0.0 0.00 0.00 0.00 99 1019.3
20260903114800 73 216 0.0 0.0 0.00 0.00 0.00 99 1019.5
20260903114255 72 208 0.0 0.0 0.00 0.00 0.00 99 1019.4
20260903113750 72 216 0.0 0.0 0.00 0.00 0.00 99 1019.6
20260903113246 72 216 0.0 0.0 0.00 0.00 0.00 99 1019.6
20260903112742 72 216 0.0 0.0 0.00 0.00 0.00 99 1019.3
20260903112238 72 216 0.0 0.0 0.00 0.00 0.00 99 1019.2
20260903111736 72 216 0.0 0.0 0.00 0.00 0.00 99 1019.1
20260903111232 72 206 0.0 0.0 0.00 0.00 0.00 99 1018.9
20260903110727 72 216 0.0 0.0 0.00 0.00 0.00 99 1019.0
20260903110223 72 216 0.0 0.0 0.00 0.00 0.00 99 1019.0
20260903105723 72 216 0.0 0.0 0.00 0.00 0.00 99 1018.9
20260903105218 72 216 0.0 0.0 0.00 0.00 0.00 99 1018.9
20260903104718 72 206 0.0 0.0 0.00 0.00 0.00 99 1018.9
20260903104213 72 216 0.0 0.0 0.00 0.00 0.00 99 1018.9
20260903103708 72 216 0.0 0.0 0.00 0.00 0.00 99 1018.7
20260903103204 73 216 0.0 0.0 0.00 0.00 0.00 99 1018.7
20260903102700 73 216 0.0 0.0 0.00 0.00 0.00 99 1019.0
20260903102154 73 216 0.0 0.0 0.00 0.00 0.00 99 1018.8
20260903101653 73 216 0.0 0.0 0.00 0.00 0.00 99 1019.0
20260903101149 73 216 0.0 0.0 0.00 0.00 0.00 99 1018.7
20260903100644 73 216 0.0 0.0 0.00 0.00 0.00 99 1018.6
20260903100143 73 216 0.0 0.0 0.00 0.00 0.00 99 1018.6
20260903095641 73 216 0.0 0.0 0.00 0.00 0.00 99 1018.6
20260903095141 73 208 0.0 0.0 0.00 0.00 0.00 99 1018.6
20260903094636 73 216 0.0 0.0 0.00 0.00 0.00 99 1018.7
20260903094131 73 216 0.0 0.0 0.00 0.00 0.00 99 1018.5
20260903093626 73 208 0.0 0.0 0.00 0.00 0.00 99 1018.7
20260903093121 73 208 0.0 0.0 0.00 0.00 0.00 99 1018.8
20260903092621 73 208 0.0 0.0 0.00 0.00 0.00 99 1018.8
20260903091614 73 216 0.0 0.0 0.00 0.00 0.00 99 1018.9
20260903091109 73 216 0.0 0.0 0.00 0.00 0.00 99 1018.9
20260903090605 73 216 0.0 0.0 0.00 0.00 0.00 99 1018.7
20260903090103 74 215 0.0 0.0 0.00 0.00 0.00 99 1018.7
20260903085602 74 215 0.0 0.0 0.00 0.00 0.00 99 1018.5
20260903085058 74 215 0.0 0.0 0.00 0.00 0.00 99 1018.6
20260903084555 74 216 0.0 0.0 0.00 0.00 0.00 99 1018.6
20260903084051 74 216 0.0 0.0 0.00 0.00 0.00 99 1018.6
20260903083547 74 215 0.0 0.0 0.00 0.00 0.00 99 1018.8
20260903083046 74 216 0.0 0.0 0.00 0.00 0.00 99 1018.8
20260903082540 74 215 0.0 0.0 0.00 0.00 0.00 99 1018.6
20260903082036 74 216 0.0 0.0 0.00 0.00 0.00 99 1018.7
20260903081531 74 215 0.0 0.0 0.00 0.00 0.00 99 1018.6
20260903081027 74 208 0.0 0.0 0.00 0.00 0.00 99 1018.7
20260903080523 74 208 0.0 0.0 0.00 0.00 0.00 99 1018.4
20260903080020 74 208 0.0 0.0 0.00 0.00 0.00 99 1018.5
20260903075514 74 208 0.0 0.0 0.00 0.00 0.00 99 1018.4
20260903075009 74 208 0.0 0.0 0.00 0.00 0.00 99 1018.4
20260903074509 74 208 0.0 0.0 0.00 0.00 0.00 99 1018.3
20260903074003 74 208 0.0 0.0 0.00 0.00 0.00 99 1018.2
20260903073459 74 208 0.0 0.0 0.00 0.00 0.00 99 1018.5
20260903072954 74 208 0.0 0.0 0.00 0.00 0.00 99 1018.1
20260903072450 74 213 0.0 0.0 0.00 0.00 0.00 99 1018.4
20260903071947 74 213 0.0 0.0 0.00 0.00 0.00 99 1018.1
20260903071442 74 208 0.0 0.0 0.00 0.00 0.00 99 1018.3
20260903070938 74 213 0.0 0.0 0.00 0.00 0.00 99 1018.3
20260903070432 74 208 0.0 0.0 0.00 0.00 0.00 99 1018.3
20260903065927 74 213 0.0 0.0 0.00 0.00 0.00 99 1018.1
20260903065427 74 216 0.0 0.0 0.00 0.00 0.00 99 1018.3
20260903064926 74 216 0.0 0.0 0.00 0.00 0.00 99 1018.1
20260903064421 74 216 0.0 0.0 0.00 0.00 0.00 99 1018.1
20260903063917 75 216 0.0 0.0 0.00 0.00 0.00 99 1018.2
20260903063412 75 216 0.0 0.0 0.00 0.00 0.00 99 1018.1
20260903062907 75 216 0.0 0.0 0.00 0.00 0.00 98 1018.2
20260903062402 75 216 0.0 0.0 0.00 0.00 0.00 98 1018.3
20260903061858 75 216 0.0 0.0 0.00 0.00 0.00 98 1018.2
20260903061357 75 216 0.0 0.0 0.00 0.00 0.00 98 1018.3
20260903060853 75 216 0.0 0.0 0.00 0.00 0.00 97 1018.4
20260903060353 75 216 0.0 0.0 0.00 0.00 0.00 97 1018.5
20260903055850 75 216 0.0 0.0 0.00 0.00 0.00 97 1018.4
20260903055348 75 216 0.0 0.0 0.00 0.00 0.00 97 1018.5
20260903054844 75 216 0.0 0.0 0.00 0.00 0.00 97 1018.6
20260903054338 75 216 0.0 0.0 0.00 0.00 0.00 97 1018.5
20260903053835 75 208 0.0 0.0 0.00 0.00 0.00 97 1018.5
20260903053330 75 208 0.0 0.0 0.00 0.00 0.00 97 1018.4
20260903052825 76 213 0.0 0.0 0.00 0.00 0.00 96 1018.6
20260903052321 76 213 0.0 0.0 0.00 0.00 0.00 96 1018.5
20260903051816 76 215 0.0 0.0 0.00 0.00 0.00 96 1018.4
20260903051312 76 215 0.0 0.0 0.00 0.00 0.00 96 1018.5
20260903050807 76 215 0.0 0.0 0.00 0.00 0.00 96 1018.6
20260903050306 76 215 0.0 0.0 0.00 0.00 0.00 96 1018.3
20260903045801 76 215 0.0 0.0 0.00 0.00 0.00 95 1018.4
20260903045257 76 215 0.0 0.0 0.00 0.00 0.00 95 1018.5
20260903044753 76 215 0.0 0.0 0.00 0.00 0.00 95 1018.4
20260903044248 77 215 0.0 0.0 0.00 0.00 0.00 94 1018.2
20260903043745 77 215 0.0 0.0 0.00 0.00 0.00 94 1018.2
20260903043244 77 215 0.0 0.0 0.00 0.00 0.00 93 1018.2
20260903042743 77 215 0.0 0.0 0.00 0.00 0.00 93 1018.2
20260903042239 77 216 0.0 0.0 0.00 0.00 0.00 92 1018.1
20260903041735 77 216 0.0 0.0 0.00 0.00 0.00 92 1018.2
20260903041231 78 215 0.0 0.0 0.00 0.00 0.00 91 1018.0
20260903040725 78 215 0.0 0.0 0.00 0.00 0.00 90 1018.0
20260903040220 78 215 0.0 0.0 0.00 0.00 0.00 90 1018.3
20260903035715 78 215 0.0 0.0 0.00 0.00 0.00 89 1018.2
20260903035206 78 215 0.0 0.0 0.00 0.00 0.00 89 1018.2
20260903034705 79 215 0.0 0.0 0.00 0.00 0.00 89 1018.1
20260903034200 79 215 0.0 0.0 0.00 0.00 0.00 88 1018.2
20260903033656 79 215 0.0 0.0 0.00 0.00 0.00 87 1018.4
20260903033150 79 215 0.0 0.0 0.00 0.00 0.00 87 1018.3
20260903032645 79 215 0.0 0.0 0.00 0.00 0.00 87 1018.5
20260903032140 79 215 0.0 0.0 0.00 0.00 0.00 88 1018.4
20260903031636 79 215 0.0 0.0 0.00 0.00 0.00 87 1018.4
20260903031131 79 215 0.0 0.0 0.00 0.00 0.00 88 1018.5
20260903030626 79 215 0.0 0.0 0.00 0.00 0.00 88 1018.5
20260903030122 79 208 0.0 0.0 0.00 0.00 0.00 88 1018.6
20260903025617 79 215 0.0 0.0 0.00 0.00 0.00 89 1018.5
20260903025113 79 215 0.0 0.0 0.00 0.00 0.00 89 1018.6
20260903024613 79 215 0.0 0.0 0.00 0.00 0.00 89 1018.5
20260903024106 79 215 0.0 0.0 0.00 0.00 0.00 88 1018.6
20260903023602 80 215 0.0 0.0 0.00 0.00 0.00 88 1018.7
20260903023051 80 215 0.0 0.0 0.00 0.00 0.00 88 1018.7
20260903022551 80 209 0.0 0.0 0.00 0.00 0.00 88 1018.6
20260903022050 80 216 0.0 0.0 0.00 0.00 0.00 87 1018.5
20260903021544 80 216 0.0 0.0 0.00 0.00 0.00 86 1018.4
20260903021039 80 216 0.0 0.0 0.00 0.00 0.00 86 1018.4
20260903020535 80 216 0.0 0.0 0.00 0.00 0.00 86 1018.4
20260903020035 80 216 0.0 0.0 0.00 0.00 0.00 86 1018.4
20260903015530 80 216 0.0 0.0 0.00 0.00 0.00 85 1018.5
20260903015026 81 216 0.0 0.0 0.00 0.00 0.00 85 1018.4
20260903014525 81 216 0.0 0.0 0.00 0.00 0.00 85 1018.5
20260903014021 81 216 0.0 0.0 0.00 0.00 0.00 85 1018.3
20260903013520 81 216 0.0 0.0 0.00 0.00 0.00 84 1018.2
20260903013014 81 216 0.0 0.0 0.00 0.00 0.00 83 1018.2
20260903012508 82 216 0.0 0.0 0.00 0.00 0.00 83 1018.0
20260903012007 82 216 0.0 0.0 0.00 0.00 0.00 83 1017.9
20260903011502 82 216 0.0 0.0 0.00 0.00 0.00 83 1018.2
20260903010956 82 216 0.0 0.0 0.00 0.00 0.00 82 1018.0
20260903010451 82 216 0.0 0.0 0.00 0.00 0.00 83 1017.7
20260903005949 82 207 0.0 0.0 0.00 0.00 0.00 83 1017.6
20260903005444 83 206 0.0 0.0 0.00 0.00 0.00 82 1017.9
20260903004941 83 206 0.0 0.0 0.00 0.00 0.00 80 1017.7
20260903004435 83 210 0.0 0.0 0.00 0.00 0.00 79 1017.8
20260903003931 83 206 0.0 0.0 0.00 0.00 0.00 78 1017.6
20260903003431 83 206 0.0 0.0 0.00 0.00 0.00 78 1017.7
20260903002925 84 216 0.0 0.0 0.00 0.00 0.00 77 1017.6
20260903002420 84 216 0.0 0.0 0.00 0.00 0.00 78 1017.7
20260903001915 85 210 0.0 0.0 0.00 0.00 0.00 77 1017.6
20260903001409 85 210 0.0 0.0 0.00 0.00 0.00 76 1017.7
20260903000903 86 216 0.0 0.0 0.00 0.00 0.00 76 1017.6
20260903000359 87 206 0.0 0.0 0.00 0.00 0.00 76 1017.7
20260902235857 87 205 0.0 0.0 0.00 0.00 0.00 73 1017.8
20260902235352 88 205 0.0 0.0 0.00 0.00 0.00 71 1017.8
20260902234851 89 213 0.0 0.0 0.00 0.00 0.00 71 1017.6
20260902234346 89 215 0.0 0.0 0.00 0.00 0.00 67 1017.7
20260902233844 91 213 0.0 0.0 0.00 0.00 0.00 65 1017.8
20260902233340 92 215 0.0 0.0 0.00 0.00 0.00 65 1017.8
20260902232838 94 209 0.0 0.0 0.00 0.00 0.00 62 1017.9
20260902232333 94 209 0.0 0.0 0.00 0.00 0.00 63 1017.9
20260902231833 94 209 0.0 0.0 0.00 0.00 0.00 61 1017.9
20260902231328 94 211 0.0 0.0 0.00 0.00 0.00 63 1017.6
20260902230823 95 211 0.0 0.0 0.00 0.00 0.00 59 1017.8
20260902230322 96 211 0.0 0.0 0.00 0.00 0.00 58 1017.7
20260902225817 96 211 0.0 0.0 0.00 0.00 0.00 56 1018.0
20260902225312 95 211 0.0 0.0 0.00 0.00 0.00 53 1017.9
20260902224810 96 213 0.0 0.9 0.00 0.00 0.00 51 1017.8
20260902224305 96 213 0.0 0.0 0.00 0.00 0.00 51 1017.9
20260902223802 96 213 0.0 0.9 0.00 0.00 0.00 51 1018.0
20260902223301 95 213 0.0 0.9 0.00 0.00 0.00 50 1018.0
20260902222755 96 213 0.9 0.9 0.00 0.00 0.00 49 1018.1
20260902222254 98 219 0.0 0.0 0.00 0.00 0.00 51 1018.0
20260902221749 98 219 0.0 0.0 0.00 0.00 0.00 47 1017.8
20260902221248 98 219 0.0 0.9 0.00 0.00 0.00 48 1017.9
20260902220744 98 219 0.0 0.0 0.00 0.00 0.00 47 1018.0
20260902220243 98 213 0.0 1.7 0.00 0.00 0.00 50 1018.1
20260902215739 97 219 0.0 1.7 0.00 0.00 0.00 50 1018.1
20260902215234 95 213 0.0 0.9 0.00 0.00 0.00 49 1018.0
20260902214730 96 209 0.0 2.6 0.00 0.00 0.00 49 1018.2
20260902214228 99 219 0.0 0.0 0.00 0.00 0.00 45 1018.1
20260902213724 96 219 0.0 0.9 0.00 0.00 0.00 50 1017.9
20260902213219 97 219 1.7 3.5 0.00 0.00 0.00 48 1018.1
20260902212718 97 219 0.0 0.0 0.00 0.00 0.00 49 1018.0
20260902212215 97 219 0.0 0.9 0.00 0.00 0.00 49 1018.1
20260902211711 98 217 1.7 3.5 0.00 0.00 0.00 46 1018.0
20260902211206 99 219 0.0 0.9 0.00 0.00 0.00 45 1018.1
20260902210700 98 213 0.0 2.6 0.00 0.00 0.00 48 1018.2
20260902210155 98 219 0.0 0.0 0.00 0.00 0.00 45 1018.3
20260902205654 96 219 0.0 0.9 0.00 0.00 0.00 46 1018.1
20260902205149 97 212 0.0 0.9 0.00 0.00 0.00 44 1018.1
20260902204644 97 219 0.0 0.0 0.00 0.00 0.00 47 1018.3
20260902204138 98 219 0.0 0.9 0.00 0.00 0.00 45 1018.2
20260902203634 96 219 0.0 0.0 0.00 0.00 0.00 46 1018.4
20260902203134 96 213 0.9 1.7 0.00 0.00 0.00 47 1018.4
20260902202629 97 213 2.6 2.6 0.00 0.00 0.00 47 1018.4
20260902202126 97 219 1.7 1.7 0.00 0.00 0.00 45 1018.6
20260902201622 97 219 0.0 0.0 0.00 0.00 0.00 46 1018.4
20260902201121 97 219 0.0 1.7 0.00 0.00 0.00 47 1018.4
20260902200616 98 213 0.0 1.7 0.00 0.00 0.00 43 1018.4
20260902200113 97 213 1.7 1.7 0.00 0.00 0.00 45 1018.5
20260902195608 97 213 0.0 1.7 0.00 0.00 0.00 45 1018.7
20260902195107 98 219 1.7 2.6 0.00 0.00 0.00 44 1018.7
20260902194606 97 211 0.0 0.0 0.00 0.00 0.00 44 1018.7
20260902194102 98 224 1.7 2.6 0.00 0.00 0.00 43 1018.8
20260902193558 97 213 0.0 0.9 0.00 0.00 0.00 46 1018.9
20260902193057 97 211 0.0 0.0 0.00 0.00 0.00 48 1018.8
20260902192555 96 211 0.0 0.0 0.00 0.00 0.00 47 1018.8
20260902192054 96 215 0.0 0.9 0.00 0.00 0.00 51 1019.0
20260902191550 96 211 0.0 2.6 0.00 0.00 0.00 50 1019.1
20260902191044 96 211 1.7 1.7 0.00 0.00 0.00 50 1019.0
20260902190540 97 211 0.0 2.6 0.00 0.00 0.00 51 1019.1
20260902190035 96 209 0.0 0.0 0.00 0.00 0.00 52 1019.2
20260902185531 96 211 0.9 1.7 0.00 0.00 0.00 51 1019.2
20260902185026 95 216 1.7 1.7 0.00 0.00 0.00 52 1019.4
20260902184521 95 215 0.0 0.0 0.00 0.00 0.00 56 1019.3
20260902184017 95 215 0.0 0.9 0.00 0.00 0.00 53 1019.4
20260902183513 94 202 1.7 1.7 0.00 0.00 0.00 52 1019.5
20260902183009 94 212 0.0 0.9 0.00 0.00 0.00 55 1019.4
20260902182505 95 209 1.7 2.6 0.00 0.00 0.00 54 1019.3
20260902182000 95 211 0.0 2.6 0.00 0.00 0.00 53 1019.8
20260902181456 95 212 0.9 1.7 0.00 0.00 0.00 55 1019.6
20260902180951 95 213 0.0 0.9 0.00 0.00 0.00 57 1019.7
20260902180446 93 218 0.0 0.9 0.00 0.00 0.00 56 1019.7
20260902175941 93 219 2.6 3.5 0.00 0.00 0.00 60 1019.7
20260902175436 93 216 1.7 2.6 0.00 0.00 0.00 57 1019.8
20260902174932 94 215 2.6 2.6 0.00 0.00 0.00 58 1019.6
20260902174428 93 204 1.7 1.7 0.00 0.00 0.00 57 1019.9
20260902173924 92 214 0.0 0.9 0.00 0.00 0.00 57 1020.2
20260902173423 92 228 1.7 2.6 0.00 0.00 0.00 57 1020.2
20260902172918 92 215 0.0 1.7 0.00 0.00 0.00 59 1020.1
20260902172417 92 222 1.7 2.6 0.00 0.00 0.00 56 1020.4
20260902171912 92 218 2.6 3.5 0.00 0.00 0.00 57 1020.4
20260902171408 92 218 2.6 6.1 0.00 0.00 0.00 58 1020.4
20260902170904 92 204 0.0 3.5 0.00 0.00 0.00 65 1020.6
20260902170359 92 216 0.0 1.7 0.00 0.00 0.00 66 1020.7
20260902165854 92 216 0.0 3.5 0.00 0.00 0.00 69 1020.5
20260902165353 91 216 0.0 0.0 0.00 0.00 0.00 68 1020.6
20260902164849 91 213 0.9 2.6 0.00 0.00 0.00 66 1020.7
20260902164343 92 210 0.0 3.5 0.00 0.00 0.00 65 1020.7
20260902163842 92 213 0.0 0.0 0.00 0.00 0.00 68 1020.9
20260902163337 91 213 0.0 0.9 0.00 0.00 0.00 67 1020.9
20260902162835 91 204 0.0 0.0 0.00 0.00 0.00 67 1021.1
20260902162330 90 211 0.0 0.0 0.00 0.00 0.00 67 1021.1
20260902161825 90 204 0.0 0.9 0.00 0.00 0.00 67 1021.2
20260902161321 90 210 0.9 1.7 0.00 0.00 0.00 67 1021.2
20260902160817 91 217 1.7 1.7 0.00 0.00 0.00 68 1021.2
20260902160312 91 213 0.0 0.0 0.00 0.00 0.00 67 1021.3
20260902155810 89 216 0.0 0.9 0.00 0.00 0.00 70 1021.2
20260902155309 89 210 0.0 1.7 0.00 0.00 0.00 72 1021.5
20260902154804 89 216 0.9 1.7 0.00 0.00 0.00 71 1021.3
20260902154300 89 205 0.0 0.9 0.00 0.00 0.00 71 1021.3
20260902153758 88 205 0.0 0.0 0.00 0.00 0.00 73 1021.4
20260902153253 87 215 0.0 0.9 0.00 0.00 0.00 74 1021.4
20260902152749 88 217 0.9 2.6 0.00 0.00 0.00 71 1021.5
20260902152244 88 215 0.9 1.7 0.00 0.00 0.00 72 1021.2
20260902151739 87 215 0.9 1.7 0.00 0.00 0.00 74 1021.4
20260902151234 87 217 0.9 1.7 0.00 0.00 0.00 75 1021.4
20260902150729 87 213 0.0 0.9 0.00 0.00 0.00 74 1021.4
20260902150225 86 212 0.9 2.6 0.00 0.00 0.00 76 1021.2
20260902145724 86 215 0.9 1.7 0.00 0.00 0.00 77 1021.3
20260902145219 86 212 0.9 1.7 0.00 0.00 0.00 78 1021.3
20260902144715 85 215 1.7 2.6 0.00 0.00 0.00 79 1021.2
20260902144210 85 205 0.0 1.7 0.00 0.00 0.00 79 1021.1
20260902143706 85 213 0.9 1.7 0.00 0.00 0.00 80 1021.1
20260902143201 85 215 0.0 0.0 0.00 0.00 0.00 80 1021.2
20260902142656 85 216 0.0 0.0 0.00 0.00 0.00 79 1021.1
20260902142152 85 215 0.0 0.0 0.00 0.00 0.00 80 1021.2
20260902141652 85 215 0.0 0.0 0.00 0.00 0.00 81 1021.1
20260902141147 84 215 0.0 0.0 0.00 0.00 0.00 83 1021.2
20260902140642 84 215 0.0 0.0 0.00 0.00 0.00 83 1021.3
20260902140137 83 216 0.0 0.0 0.00 0.00 0.00 83 1021.1
20260902135636 83 209 0.0 0.0 0.00 0.00 0.00 82 1021.1
20260902135132 83 215 0.0 0.0 0.00 0.00 0.00 83 1021.3
20260902134627 82 215 0.0 0.0 0.00 0.00 0.00 84 1021.2
20260902134121 82 216 0.0 0.0 0.00 0.00 0.00 83 1021.3
20260902133622 82 215 0.0 0.0 0.00 0.00 0.00 85 1021.3
20260902133121 81 215 0.0 0.0 0.00 0.00 0.00 86 1021.2
20260902132618 81 215 0.0 0.0 0.00 0.00 0.00 86 1021.4
20260902132113 80 215 0.0 0.0 0.00 0.00 0.00 87 1021.3
20260902131609 80 215 0.0 0.0 0.00 0.00 0.00 86 1021.4